"Pseudo-MPEC" for A10VDyt

Created 2023 Jun 11 12:22:03 UT using Find_Orb

Click here for an explanation of pseudo-MPECs

 
 Astrometry: 
     A10VDyt* C2023 06 10#32,=7iMYCxc8`P#A6x+EI=wv9deY*@7qSChD2oW/n@!.p$)`#4_W68
     A10VDyt  C2023 06 10L+\#yhX*/oUlD`Y9=ha7jpbHyK4bRsxUrywQ],F9m7bLPY:lK^b3W68
     A10VDyt  C2023 06 10-;52)Qd#Psu)KfW'YZtpvFG0`9[yUH,J7Ti]Ws0,[3hm:HM4r#4?W68
     A10VDyt  C2023 06 10gt2HsApYl.xFQ[WJk='*ntDp!2i$FbluOnHp?('ZbX;s\`7bAu0;W68
     A10VDyt KC2023 06 10@',Ju-fA\oi*f.f\5FEmar)ckC_9Y]U?a*L'K.w;m=IYy9x`AqjwL87
     A10VDyt KC2023 06 10Z[As]ZRtir[txcya::TW30Wm/=5Za2nC-hZAtU1Fj_E-^`Gy:Xq'L87
     A10VDyt KC2023 06 10i(uxyd2av**nKiM65u4%Zt'3h_*p(fEZe/lL+s0igOo0V+N'4T;cL87
     A10VDyt KC2023 06 10[NQt2!#xF]=/Pj;IT^j]S!:9UhtCB5,W=8R)mU[:8x#BBkwW6ZdkG34
     A10VDyt KC2023 06 10t#F=wi_fPq)hIf[$GOpS9BK^s\tTGe(JeyHU_4+0rMY^b7`8-`E\G34
     A10VDyt KC2023 06 10J9V-3dTSF$FM_oXog+(%n??`Y_[/tLajJnjOgj/:)$MRE2Z%ZSDtG34
     A10VDyt KB2023 06 104$YItiw_8j0a49N%HB.'o;L\O+)Pkq.Jt(mq(ScL=J`0x?Xu(9DCK19
     A10VDyt KB2023 06 10@rKwUUhclE`K'm5Sd_nt8g,3oF1lf8AstrometryekitG1!d#U0=K19
     A10VDyt KC2023 06 10'k0yt!Gnm4!*!8PA*;2Mj3^Ex;bY'SCC,ySflhAMLB?c#rPPbch-G34
     A10VDyt KB2023 06 10a)a#i1`f=XeqD2_f_ebXg[9V1!sSb56J8SmI9Ygqy^o1w5Jx()XcK19
     A10VDyt KB2023 06 10.91483116 42 06.340-09 09 50.03   ~6ANq 18.8 GXNEOCPB72
     A10VDyt KB2023 06 10.92112016 42 09.252-09 08 32.10   ~6ANq 19.2 GXNEOCPB72
     A10VDyt KC2023 06 10C4Nxa';v=e5J2^=k%4j=^Uns%0Kan)$kq,iYg*U_Ij/[)M'b;Ky'104
     A10VDyt KC2023 06 10tM`_xS(Dy3g2TLh9O2IeoPlXE=8ExfL_KJa$,A`.jrc:E'%0v/.U104
     A10VDyt KC2023 06 10tTrgW8Prq7:MwHqo1gdh3kGCAWF*2@*@8KFJdPB5g\_4hp!R84w`104
     A10VDyt KC2023 06 102=X)R-IDXIHvyEeA'(_@pM7K%):iLu`^wCj^lhq;7mo\36=oO^e#104
     A10VDyt KB2023 06 10Oj\2*_V4n1`^JRMAHhq!-qp\/598vKd5MAIii4)N^\U%^snUMIDtK74
     A10VDyt KC2023 06 10R./lFiBqTWxOhnqlS-!2EtZT!*JX#.gITWEe$:\lXP%]%J%!*Yh^M21
     A10VDyt KB2023 06 10VF;dhdsycyde#$GJ6Qh;5GB9Lww`yfD0f9t.#m-@FK+J),t@][LcK74
     A10VDyt KB2023 06 10#ejc*T)(dIA82x`?,E#VN/*nFF*sda8.bU8p8t4;LNredacted;mK74
     A10VDyt hC2023 06 10fm1sl4)Aw4iCZspx[c,wDG1r[M3a!NHk!;Y*6VrYSSpQhY8?R6f=L01
     A10VDyt hC2023 06 10/!jclickvk#DmHEb(*x^X^/e/a-BytilkxG[ucRhere.t-6(75g:L01
     A10VDyt hC2023 06 10G%Ifforhds1=y_-EQ+F2/m2qA3%WoF60mZY^x,o_UI^`.*Lin?!?L01
     A10VDyt KC2023 06 10`hxr^;t%fj_yO^,DTESW^9eB@.j_00x.r6#j1)VUBV^Z]4;6ky*1M21
     A10VDyt KB2023 06 10BJ?2c)vc\+5r.]k6m4lQHb4]$%(#/my3gfPpbn,m]%Vc!T/iFa8c958
     A10VDyt KB2023 06 10uOg1Dc%DPF0[LOIt2(*PD+*Tu*ogmj4EMYb,W9RAtIm#Lgi.q?RW958
     A10VDyt KC2023 06 10#`RbU?/5Dy#aI4TUU(XH+*julanErr_J4oCCo2gnOD/xXd-glf6xM21
     A10VDyt KB2023 06 10JZM=uAnm!r[J%sNFA#kQU#;=ka)[9-;fJjbf^/BWkFMp@Ua3a8h?958
     A10VDyt |C2023 06 11-+0ohE.v:OF*7gCFck/Ma)(Xkos]^8kC:fGHb;wbh)C5Fw0JB9,T807
     A10VDyt |C2023 06 11^MB:@g7B'#DO?9'\9oe6*23ev7a5DoNvpn]__d=)m\Btr6j^LNJ`807
     A10VDyt |C2023 06 11mFw.5u#cO3wJ]UhT8\j50cKGQ)K7PKi_`d$npkk3(B*\[@MJQ6u+807
     A10VDyt KB2023 06 117L4b?ga$'%@+s7w?$mGw^51_o!ZTlai.Y.u@fE`bsQ98/,90]wE!Y05
     A10VDyt KB2023 06 11b+J=?%/explanationZHqm0lgvIg\1`h$Rw0k-mC-I_ls#1RfF^9Y05
     A10VDyt KB2023 06 110*[`-Hwr.ev`b,+JTN1#4#Pkh)14]I(HTc.a1+4?J0YgqkKm([%2Y05
     A10VDyt KC2023 06 11mo7\Sad!o'c08ID1sUD:Lb+Q/a3jfEJ4obpH#Z#raf(SiMd=(.W.H21
     A10VDyt KC2023 06 11J=9Z$L$kKO%@7Oh:/EfJfn#UuAr#)PeSG$3KP8pgOvX$eLgdl7P`H21
     A10VDyt KC2023 06 11n,\5X9b%r/]_[hw+j[@P9_V'JHrTcg`Es8u[qGEU,ZC^egV--:m=H21
     A10VDyt KC2023 06 11u=fmqOZ2N7_f2@8Yem?E6#eWZedAY18T($T-6@5M%V9ynr?;8d+oH21
     A10VDyt KC2023 06 11)b)IJ(8c7tA9N)OnrWMNpMvCl750B*:^4ce8EWU\QQOZZYN,j5`)H21
     A10VDyt KC2023 06 111]u#r_yWS^k#]Z9R1D\E$;td+PyEYe).h!mA2G%W=(;3.f(RM0=!H21

Station data:
(104) San Marcello Pistoiese  (N44.064178 E10.803750)  Italy.  Observers P.
   Bacci, M. Maestripieri. Measurers P. Bacci, L. Tesi, G. Fagioli. 0.60-m
   reflector + CCD.
(807) Cerro Tololo Observatory, La Serena  (S30.169133 W70.805900)  Chile.
   Observer R. Holmes. 0.61-m f/6.5 astrograph + CCD.
(958) Observatoire de Dax  (N43.693324 W1.030390)  France.  Observer P.
   Dupouy. 0.32-m Schmidt-Cassegrain.
(B72) Soerth  (N50.698508 E7.681100)  Germany.  Observer B. Koch. 0.36-m
   f/7.6 Schmidt-Cassegrain + CCD + f/7.6 focal reducer.
(G34) Oberfrauendorf  (N50.860060 E13.701500)  Germany.  Observer T. Felber.
   0.35-m f/6.3 Schmidt-Cassegrain + CCD.
(H21) Astronomical Research Observatory, Westfield  (N39.483054 W87.968270)
   US/Illinois.  Observer R. Holmes. Measurers S. Foglia, L. Buzzi, T.
   Linder, R. Holmes. 0.76-m f/3.0 astrograph + CCD0.81-m f/4.0 astrograph +
   CCD0.61-m f/4.5 astrograph + CCD0.40-m f/5.32 astrograph + CCD.
(K19) PASTIS Observatory, Banon  (N43.999459 E5.647310)  France.  Observer C.
   Demeautis. 0.16-m f/3.3 reflector + CCD.
(K74) Muensterschwarzach Observatory, Schwarzach  (N49.805276 E10.236400)
   Germany.  Observer C. Gerhard. 0.30-m f/3.75 Newtonian reflector + CCD.
(L01) Višnjan Observatory, Tičan  (N45.290897 E13.749300)  Croatia.
   Observers K. Korlević, D. Pujagic, V. Dobos. Measurers D. Pujagic, K.
   Korlević. 1.0-m f/2.9 reflector + CCD.
(L87) Moonbase South Observatory, Hakos  (S23.236420 E16.361890)  Namibia.
   Observer G. Duszanowicz. 0.36-m f/7.7 reflector + CCD.
(M21) Schiaparelli Southern Observatory, Hakos  (S23.236549 E16.361440)
   Namibia.  Observers A. Aletti, F. Bellini, L. Buzzi, G. Galli. Measurer L.
   Buzzi. 0.36-m f/8.4 reflector + CCD.
(W68) ATLAS Chile, Rio Hurtado  (S30.471010 W70.764980)  Chile.  Observers L.
   Denneau, R. Siverd, J. Tonry, H. Weiland. Measurers L. Denneau, N.
   Erasmus, A. Fitzsimmons, A. Lawrence, J. Robinson, R. Siverd, J. Tonry, H.
   Weiland. 0.5-m reflector + CCD.
(Y05) SONEAR Wykrota-CEAMIG, Serra da Piedade  (S19.824239 W43.690000)
   Brazil.

Orbital elements:  A10VDyt
   Perigee 2023 Jun 9.04157 +/- 0.000136 TT =  0:59:51 (JD 2460104.54157)
Epoch 2023 Jun 11.0 TT = JDT 2460106.5                           AutoNEOCP
q 88676.6659 +/- 13.8               (J2000 equator)
H   30.03 G 0.15                    Peri.  250.42640 +/- 0.0029
                                    Node   261.65496 +/- 0.00031
e   3.5358834 +/- 0.000636          Incl.   38.00361 +/- 0.0007
43 of 44 observations 2023 June 10-11 (22.5 hr); mean residual 0".28
Residuals in arcseconds: 
230610 W68  .00   .00     230610 B72  .30-  .00     230610 M21  .19+  .36+    
230610 W68  .18+  .07+    230610 104  .39-  .07-    230610 958  .32-  .01+    
230610 W68  .23+  .38+    230610 104  .20-  .37+    230611 807  .08+  .19-    
230610 W68  .49-  .49-    230610 104  .28-  .06-    230611 807  .18+  .04-    
230610 L87( 2.0+  .66+)   230610 104  .03-  .26+    230611 807  .07-  .11+    
230610 L87  .38+  .03-    230610 K74  .19+  .07-    230611 Y05  .06+  .11+    
230610 L87  .14+  .60-    230610 M21  .24+  .04+    230611 Y05  .04+  .20+    
230610 G34  .12-  .03+    230610 K74  .28+  .18+    230611 Y05  .35+  .23+    
230610 G34  .21+  .12-    230610 K74  .12+  .02+    230611 H21  .19+  .05-    
230610 G34  .41-  .10-    230610 L01  .32-  .12+    230611 H21  .04-  .07-    
230610 K19  .12+  .53+    230610 L01  .37-  .01+    230611 H21  .15-  .28-    
230610 K19  .11+  .47+    230610 L01  .56+  .14+    230611 H21  .03+  .08-    
230610 G34  .56+  .15+    230610 M21  .12-  .39-    230611 H21  .04+  .28-    
230610 K19  .24+  .20-    230610 958  .49-  .56-    230611 H21  .05+  .41-    
230610 B72  .12+  .19+    230610 958  .94-  .10-    

Ephemerides (geocentric):
Date (UTC) HH   RA             Dec           delta  r     elong  mag " sig PA
---- --------  ------------   ------------  ------ ------ -----  --- --------
2023 06 11 12  16 49 34.871   -07 09 41.27  781914 1.0203 162.8 19.6 .335  67
2023 06 11 13  16 50 00.350   -07 04 51.02  794472 1.0204 162.8 19.7 .362  67
2023 06 11 14  16 50 25.022   -07 00 09.79  807026 1.0205 162.7 19.7 .389  66
2023 06 11 15  16 50 48.925   -06 55 37.16  819577 1.0206 162.7 19.7 .417  65
2023 06 11 16  16 51 12.096   -06 51 12.75  832124 1.0206 162.6 19.8 .443  65
2023 06 11 17  16 51 34.566   -06 46 56.21  844669 1.0207 162.6 19.8 .470  65
2023 06 11 18  16 51 56.368   -06 42 47.18  857211 1.0208 162.5 19.8 .497  64
2023 06 11 19  16 52 17.531   -06 38 45.35  869749 1.0209 162.5 19.9 .523  64
2023 06 11 20  16 52 38.083   -06 34 50.41  882285 1.0210 162.4 19.9 .549  64
2023 06 11 21  16 52 58.049   -06 31 02.08  894818 1.0211 162.4 19.9 .574  63
2023 06 11 22  16 53 17.455   -06 27 20.09  907349 1.0211 162.3 20.0 .600  63
2023 06 11 23  16 53 36.323   -06 23 44.17  919877 1.0212 162.3 20.0 .625  63
2023 06 12 00  16 53 54.676   -06 20 14.09  932402 1.0213 162.2 20.0 .650  63
2023 06 12 01  16 54 12.535   -06 16 49.62  944924 1.0214 162.2 20.1 .675  62
2023 06 12 02  16 54 29.919   -06 13 30.54  957445 1.0215 162.1 20.1 .699  62
2023 06 12 03  16 54 46.846   -06 10 16.64  969963 1.0216 162.1 20.1 .722  62
2023 06 12 04  16 55 03.336   -06 07 07.74  982478 1.0216 162.0 20.1 .745  62
2023 06 12 05  16 55 19.404   -06 04 03.63  994992 1.0217 162.0 20.2 .769  62
2023 06 12 06  16 55 35.066   -06 01 04.15  .00673 1.0218 162.0 20.2 .791  62
2023 06 12 07  16 55 50.338   -05 58 09.13  .00682 1.0219 161.9 20.2 .814  61
2023 06 12 08  16 56 05.233   -05 55 18.40  .00690 1.0220 161.9 20.3 .836  61
2023 06 12 09  16 56 19.767   -05 52 31.82  .00699 1.0221 161.8 20.3 .858  61
2023 06 12 10  16 56 33.951   -05 49 49.24  .00707 1.0221 161.8 20.3 .879  61
2023 06 12 11  16 56 47.798   -05 47 10.53  .00715 1.0222 161.7 20.3 .900  61
2023 06 12 12  16 57 01.320   -05 44 35.54  .00724 1.0223 161.7 20.4 .921  61
2023 06 12 13  16 57 14.529   -05 42 04.15  .00732 1.0224 161.7 20.4 .942  61
2023 06 12 14  16 57 27.435   -05 39 36.26  .00740 1.0225 161.6 20.4 .962  61
2023 06 12 15  16 57 40.048   -05 37 11.72  .00749 1.0226 161.6 20.4 .982  61
2023 06 12 16  16 57 52.378   -05 34 50.45  .00757 1.0226 161.6 20.5 1.00  60
2023 06 12 17  16 58 04.435   -05 32 32.34  .00765 1.0227 161.5 20.5 1.02  60
2023 06 12 18  16 58 16.227   -05 30 17.27  .00774 1.0228 161.5 20.5 1.04  60
2023 06 12 19  16 58 27.763   -05 28 05.17  .00782 1.0229 161.4 20.5 1.06  60
2023 06 12 20  16 58 39.052   -05 25 55.93  .00790 1.0230 161.4 20.6 1.08  60
2023 06 12 21  16 58 50.102   -05 23 49.47  .00799 1.0230 161.4 20.6 1.10  60
2023 06 12 22  16 59 00.919   -05 21 45.70  .00807 1.0231 161.3 20.6 1.12  60
2023 06 12 23  16 59 11.511   -05 19 44.54  .00815 1.0232 161.3 20.6 1.13  60
2023 06 13 00  16 59 21.885   -05 17 45.91  .00824 1.0233 161.3 20.7 1.15  60
2023 06 13 01  16 59 32.048   -05 15 49.75  .00832 1.0234 161.2 20.7 1.17  60
2023 06 13 02  16 59 42.005   -05 13 55.97  .00840 1.0235 161.2 20.7 1.19  60
2023 06 13 03  16 59 51.764   -05 12 04.51  .00849 1.0235 161.2 20.7 1.20  60
2023 06 13 04  17 00 01.331   -05 10 15.30  .00857 1.0236 161.1 20.8 1.22  60
2023 06 13 05  17 00 10.709   -05 08 28.28  .00866 1.0237 161.1 20.8 1.24  60
2023 06 13 06  17 00 19.907   -05 06 43.39  .00874 1.0238 161.1 20.8 1.25  59
2023 06 13 07  17 00 28.927   -05 05 00.57  .00882 1.0239 161.0 20.8 1.27  59
2023 06 13 08  17 00 37.776   -05 03 19.76  .00891 1.0240 161.0 20.8 1.28  59
2023 06 13 09  17 00 46.458   -05 01 40.90  .00899 1.0240 161.0 20.9 1.30  59
2023 06 13 10  17 00 54.979   -05 00 03.95  .00907 1.0241 160.9 20.9 1.31  59
2023 06 13 11  17 01 03.342   -04 58 28.85  .00916 1.0242 160.9 20.9 1.33  59